Weather in Drimmelen

Netherlands     51°41′44″N   4°46′27″E
temp.,
°C
wind,
m/s
gust,
m/s
humid.,
%
clouds,
%
prec.,
mm/h
press.,
hPa
HPBL,
m
26 february, fri
fri2601:00+9nnw3581100 0.0 1031318
04:00+8nnw2477100 0.3 1032133
07:00+5nw238581 0.3 103337
10:00+8nnw46720 0.0 1035474
13:00+10nnw45520 0.0 10361264
16:00+9nnw56540 0.0 10351284
19:00+5nw34720 0.0 103697
22:00+4nw23830 0.0 103850
27 february, sat
sat2701:00+4nw23860 0.0 103931
04:00+3nw22890 0.0 103823
07:00+3nnw12890 0.0 103922
10:00+7nnw12740 0.0 1039207
13:00+10nnw22600 0.0 1040782
16:00+11n23570 0.0 10391004
19:00+6n36820 0.0 1038118
22:00+5ne23900 0.0 103934
28 february, sun
sun2801:00+4ne22920 0.0 103824
04:00+3nne12930 0.0 103722
07:00+2nne22920 0.0 103723
10:00+6ne24790 0.0 1036247
13:00+10ene34660 0.0 1036789
16:00+10ne456863 0.0 1034899
19:00+6ne368681 0.0 1034129
22:00+5ne389367 0.0 1034167
1 march, mon
mon101:00+4ene499433 0.0 1034204
04:00+3ene48950 0.0 1032203
07:00+2ene36950 0.0 1032144
10:00+6e57740 0.0 1032322
13:00+10ese575526 0.0 1031768
16:00+10ese46550 0.0 1029705
19:00+6ese23700 0.0 103023
22:00+5e23740 0.0 103023
2 march, tue
tue201:00+4ese228128 0.0 103022
04:00+4se228755 0.0 103022
07:00+4se238827 0.0 103024
10:00+8se237234 0.0 1030180
13:00+12se235748 0.0 1030403
16:00+13ese235696 0.0 1029384
19:00+8ese336871 0.0 102930
22:00+8sse34690 0.0 103045